Location: Amsterdam
(30.7274°N, 84.4357°W)
Time: 16:57:23
(UTC+00:00)

Injun/Solrad 3 - Pass Details

Date: 19 February 2026
Orbit: 871 x 985 km, 66.8° (Epoch: 11 March)

Event Time Altitude Azimuth Distance (km) Brightness Sun altitude
Rises 14:33:22 0° 159° (SSE) 3,444 11.7 26.7°
Reaches altitude 10° 14:36:59 10° 136° (SE) 2,509 11.8 27.3°
Maximum altitude 14:40:04 15° 103° (ESE) 2,192 11.4 27.8°
Drops below altitude 10° 14:43:09 10° 71° (ENE) 2,526 10.8 28.4°
Sets 14:46:46 0° 49° (NE) 3,481 11.1 29.0°
